| time (UTC) | temp F | wind direction | speed MPH | gust MPH | rain 1hr in | rain 24hr in | rain mn in | humidity % | barometer mb |
| 20260507234007 | 53 | 242 | 1.0 | 5.0 | 0.00 | 0.11 | 0.00 | 45 | 1007.3 |
| 20260507233509 | 53 | 253 | 1.0 | 5.0 | 0.00 | 0.11 | 0.00 | 44 | 1007.2 |
| 20260507231003 | 54 | 278 | 3.0 | 10.0 | 0.00 | 0.11 | 0.00 | 42 | 1007.2 |
| 20260507224006 | 55 | 252 | 1.0 | 8.0 | 0.00 | 0.11 | 0.00 | 42 | 1007.4 |
| 20260507223011 | 56 | 308 | 1.0 | 13.0 | 0.00 | 0.12 | 0.00 | 41 | 1007.3 |
| 20260507222006 | 56 | 277 | 5.0 | 11.0 | 0.00 | 0.12 | 0.00 | 40 | 1007.2 |
| 20260507220504 | 56 | 316 | 2.0 | 12.0 | 0.00 | 0.12 | 0.00 | 41 | 1007.1 |
| 20260507215503 | 57 | 330 | 1.0 | 8.0 | 0.00 | 0.12 | 0.00 | 42 | 1007.2 |
| 20260507215003 | 57 | 314 | 2.0 | 8.0 | 0.00 | 0.12 | 0.00 | 42 | 1007.1 |
| 20260507212004 | 56 | 269 | 2.0 | 7.0 | 0.00 | 0.12 | 0.00 | 43 | 1007.0 |
| 20260507211513 | 56 | 252 | 1.0 | 8.0 | 0.00 | 0.12 | 0.00 | 42 | 1007.0 |
| 20260507211006 | 57 | 290 | 2.0 | 8.0 | 0.00 | 0.12 | 0.00 | 42 | 1007.0 |
| 20260507210508 | 57 | 345 | 3.0 | 8.0 | 0.00 | 0.12 | 0.00 | 41 | 1006.8 |
| 20260507210017 | 58 | 249 | 1.0 | 12.0 | 0.00 | 0.12 | 0.00 | 41 | 1006.8 |
| 20260507205508 | 58 | 10 | 3.0 | 12.0 | 0.00 | 0.12 | 0.00 | 40 | 1006.8 |
| 20260507204003 | 58 | 290 | 3.0 | 11.0 | 0.00 | 0.12 | 0.00 | 40 | 1006.8 |
| 20260507202504 | 57 | 323 | 4.0 | 10.0 | 0.00 | 0.12 | 0.00 | 41 | 1006.9 |
| 20260507201514 | 58 | 33 | 2.0 | 10.0 | 0.00 | 0.12 | 0.00 | 40 | 1006.9 |
| 20260507201007 | 59 | 267 | 4.0 | 14.0 | 0.00 | 0.12 | 0.00 | 37 | 1006.9 |
| 20260507200508 | 59 | 299 | 2.0 | 14.0 | 0.00 | 0.12 | 0.00 | 39 | 1006.8 |
| 20260507200014 | 58 | 320 | 1.0 | 14.0 | 0.00 | 0.12 | 0.00 | 37 | 1006.9 |
| 20260507195509 | 59 | 321 | 3.0 | 14.0 | 0.00 | 0.12 | 0.00 | 36 | 1007.0 |
| 20260507194520 | 60 | 301 | 3.0 | 9.0 | 0.00 | 0.12 | 0.00 | 39 | 1007.0 |
| 20260507193507 | 60 | 312 | 2.0 | 8.0 | 0.00 | 0.12 | 0.00 | 40 | 1007.0 |
| 20260507192508 | 60 | 268 | 2.0 | 12.0 | 0.00 | 0.13 | 0.00 | 37 | 1007.0 |
| 20260507191512 | 60 | 352 | 7.0 | 14.0 | 0.00 | 0.14 | 0.00 | 38 | 1007.0 |
| 20260507190506 | 59 | 301 | 3.0 | 8.0 | 0.00 | 0.15 | 0.00 | 38 | 1007.2 |
| 20260507190013 | 59 | 236 | 3.0 | 13.0 | 0.00 | 0.15 | 0.00 | 38 | 1007.3 |
| 20260507185506 | 60 | 277 | 5.0 | 13.0 | 0.00 | 0.16 | 0.00 | 36 | 1007.3 |
| 20260507185006 | 61 | 225 | 3.0 | 9.0 | 0.00 | 0.16 | 0.00 | 37 | 1007.2 |
| 20260507184518 | 61 | 278 | 3.0 | 9.0 | 0.00 | 0.16 | 0.00 | 36 | 1007.4 |
| 20260507184005 | 61 | 175 | 2.0 | 15.0 | 0.00 | 0.17 | 0.00 | 37 | 1007.4 |
| 20260507183507 | 60 | 216 | 3.0 | 15.0 | 0.00 | 0.18 | 0.00 | 39 | 1007.5 |
| 20260507182508 | 61 | 340 | 3.0 | 12.0 | 0.00 | 0.20 | 0.00 | 38 | 1007.6 |
| 20260507181524 | 60 | 298 | 3.0 | 11.0 | 0.00 | 0.20 | 0.00 | 38 | 1007.7 |
| 20260507181007 | 60 | 6 | 4.0 | 11.0 | 0.00 | 0.21 | 0.00 | 40 | 1007.8 |
| 20260507180502 | 58 | 158 | 2.0 | 7.0 | 0.00 | 0.21 | 0.00 | 39 | 1007.7 |
| 20260507175503 | 60 | 247 | 2.0 | 12.0 | 0.00 | 0.22 | 0.00 | 42 | 1007.9 |
| 20260507175004 | 60 | 229 | 3.0 | 8.0 | 0.00 | 0.23 | 0.00 | 39 | 1007.9 |
| 20260507174517 | 60 | 359 | 3.0 | 8.0 | 0.00 | 0.24 | 0.00 | 42 | 1007.8 |
| 20260507174007 | 60 | 311 | 2.0 | 8.0 | 0.00 | 0.25 | 0.00 | 41 | 1007.7 |
| 20260507173504 | 60 | 293 | 2.0 | 7.0 | 0.00 | 0.26 | 0.00 | 42 | 1007.7 |
| 20260507172505 | 59 | 1 | 2.0 | 6.0 | 0.00 | 0.28 | 0.00 | 39 | 1007.8 |
| 20260507172009 | 60 | 186 | 4.0 | 11.0 | 0.00 | 0.29 | 0.00 | 42 | 1007.7 |
| 20260507170508 | 59 | 295 | 4.0 | 9.0 | 0.00 | 0.32 | 0.00 | 44 | 1007.8 |
| 20260507170026 | 57 | 234 | 3.0 | 9.0 | 0.00 | 0.33 | 0.00 | 42 | 1007.9 |
| 20260507165510 | 57 | 343 | 2.0 | 10.0 | 0.00 | 0.34 | 0.00 | 45 | 1007.9 |
| 20260507165002 | 57 | 10 | 4.0 | 10.0 | 0.00 | 0.34 | 0.00 | 45 | 1008.0 |
| 20260507164007 | 57 | 339 | 4.0 | 8.0 | 0.00 | 0.34 | 0.00 | 47 | 1008.2 |
| 20260507163504 | 57 | 321 | 1.0 | 8.0 | 0.00 | 0.35 | 0.00 | 44 | 1008.3 |
| 20260507162512 | 57 | 336 | 4.0 | 11.0 | 0.00 | 0.35 | 0.00 | 47 | 1008.5 |
| 20260507162010 | 56 | 346 | 5.0 | 15.0 | 0.00 | 0.35 | 0.00 | 44 | 1008.6 |
| 20260507161011 | 57 | 9 | 9.0 | 18.0 | 0.00 | 0.35 | 0.00 | 45 | 1008.6 |
| 20260507160508 | 57 | 356 | 7.0 | 12.0 | 0.00 | 0.35 | 0.00 | 42 | 1008.7 |
| 20260507155511 | 58 | 314 | 2.0 | 11.0 | 0.00 | 0.35 | 0.00 | 44 | 1008.8 |
| 20260507155010 | 58 | 304 | 5.0 | 11.0 | 0.00 | 0.35 | 0.00 | 43 | 1008.8 |
| 20260507154524 | 57 | 328 | 2.0 | 8.0 | 0.00 | 0.35 | 0.00 | 43 | 1009.0 |
| 20260507154011 | 57 | 349 | 3.0 | 10.0 | 0.00 | 0.35 | 0.00 | 43 | 1009.1 |
| 20260507153504 | 57 | 324 | 5.0 | 12.0 | 0.00 | 0.35 | 0.00 | 46 | 1009.1 |
| 20260507153012 | 57 | 300 | 4.0 | 13.0 | 0.00 | 0.35 | 0.00 | 46 | 1009.1 |
| 20260507152504 | 56 | 295 | 3.0 | 13.0 | 0.00 | 0.35 | 0.00 | 46 | 1009.1 |
| 20260507152010 | 56 | 345 | 3.0 | 9.0 | 0.00 | 0.35 | 0.00 | 51 | 1009.0 |
| 20260507151009 | 57 | 12 | 1.0 | 7.0 | 0.00 | 0.35 | 0.00 | 46 | 1009.1 |
| 20260507150508 | 57 | 226 | 3.0 | 8.0 | 0.00 | 0.35 | 0.00 | 44 | 1009.1 |
| 20260507145509 | 56 | 278 | 3.0 | 11.0 | 0.00 | 0.35 | 0.00 | 49 | 1009.3 |
| 20260507145008 | 56 | 341 | 3.0 | 11.0 | 0.00 | 0.35 | 0.00 | 46 | 1009.3 |
| 20260507144530 | 55 | 267 | 4.0 | 11.0 | 0.00 | 0.35 | 0.00 | 46 | 1009.4 |
| 20260507144009 | 55 | 340 | 1.0 | 15.0 | 0.00 | 0.35 | 0.00 | 47 | 1009.4 |
| 20260507143508 | 55 | 329 | 4.0 | 15.0 | 0.00 | 0.35 | 0.00 | 47 | 1009.5 |
| 20260507143028 | 55 | 270 | 7.0 | 14.0 | 0.00 | 0.35 | 0.00 | 49 | 1009.4 |
| 20260507142508 | 55 | 280 | 6.0 | 10.0 | 0.00 | 0.35 | 0.00 | 45 | 1009.3 |
| 20260507142009 | 55 | 294 | 3.0 | 8.0 | 0.00 | 0.35 | 0.00 | 48 | 1009.3 |
| 20260507141517 | 55 | 325 | 5.0 | 13.0 | 0.00 | 0.35 | 0.00 | 47 | 1009.3 |
| 20260507141012 | 54 | 288 | 5.0 | 15.0 | 0.00 | 0.35 | 0.00 | 51 | 1009.4 |
| 20260507140509 | 55 | 334 | 4.0 | 15.0 | 0.00 | 0.35 | 0.00 | 50 | 1009.3 |
| 20260507135503 | 55 | 304 | 4.0 | 12.0 | 0.00 | 0.35 | 0.00 | 48 | 1009.2 |
| 20260507135003 | 55 | 282 | 4.0 | 11.0 | 0.00 | 0.35 | 0.00 | 53 | 1009.2 |
| 20260507134004 | 54 | 288 | 3.0 | 10.0 | 0.00 | 0.35 | 0.00 | 57 | 1009.1 |
| 20260507133504 | 54 | 338 | 2.0 | 7.0 | 0.00 | 0.35 | 0.00 | 59 | 1009.1 |
| 20260507132508 | 54 | 137 | 1.0 | 9.0 | 0.00 | 0.35 | 0.00 | 59 | 1009.2 |
| 20260507132009 | 53 | 335 | 2.0 | 9.0 | 0.00 | 0.35 | 0.00 | 55 | 1009.3 |
| 20260507131516 | 54 | 248 | 4.0 | 8.0 | 0.00 | 0.35 | 0.00 | 57 | 1009.3 |
| 20260507131004 | 53 | 20 | 1.0 | 10.0 | 0.00 | 0.35 | 0.00 | 58 | 1009.3 |
| 20260507130505 | 53 | 326 | 2.0 | 10.0 | 0.00 | 0.35 | 0.00 | 60 | 1009.2 |
| 20260507130024 | 53 | 278 | 3.0 | 9.0 | 0.00 | 0.35 | 0.00 | 56 | 1009.2 |
| 20260507125509 | 54 | 257 | 2.0 | 10.0 | 0.00 | 0.35 | 0.00 | 61 | 1009.3 |
| 20260507125011 | 53 | 304 | 2.0 | 10.0 | 0.00 | 0.35 | 0.00 | 60 | 1009.3 |
| 20260507124003 | 53 | 342 | 2.0 | 7.0 | 0.00 | 0.35 | 0.00 | 63 | 1009.3 |
| 20260507123504 | 53 | 322 | 3.0 | 10.0 | 0.00 | 0.35 | 0.00 | 64 | 1009.3 |
| 20260507122504 | 53 | 342 | 0.0 | 7.0 | 0.00 | 0.35 | 0.00 | 67 | 1009.3 |
| 20260507122006 | 53 | 343 | 1.0 | 7.0 | 0.00 | 0.35 | 0.00 | 68 | 1009.2 |
| 20260507121510 | 53 | 239 | 2.0 | 7.0 | 0.00 | 0.35 | 0.00 | 68 | 1009.2 |
| 20260507121005 | 52 | 235 | 1.0 | 7.0 | 0.00 | 0.35 | 0.00 | 70 | 1009.2 |
| 20260507120505 | 52 | 173 | 1.0 | 7.0 | 0.00 | 0.35 | 0.00 | 70 | 1009.0 |
| 20260507120035 | 53 | 358 | 2.0 | 6.0 | 0.00 | 0.35 | 0.00 | 70 | 1009.0 |
| 20260507115507 | 52 | 291 | 2.0 | 6.0 | 0.00 | 0.35 | 0.00 | 72 | 1008.9 |
| 20260507115008 | 52 | 276 | 0.0 | 6.0 | 0.00 | 0.35 | 0.00 | 74 | 1008.9 |
| 20260507114519 | 52 | 304 | 0.0 | 12.0 | 0.00 | 0.35 | 0.00 | 74 | 1008.8 |
| 20260507114009 | 51 | 204 | 3.0 | 12.0 | 0.00 | 0.35 | 0.00 | 75 | 1008.8 |
| 20260507113513 | 50 | 297 | 3.0 | 5.0 | 0.00 | 0.35 | 0.00 | 77 | 1008.8 |
| 20260507113038 | 50 | 210 | 1.0 | 3.0 | 0.00 | 0.35 | 0.00 | 81 | 1008.8 |
| 20260507112510 | 49 | 277 | 0.0 | 2.0 | 0.00 | 0.35 | 0.00 | 84 | 1008.8 |
| 20260507112007 | 48 | 234 | 0.0 | 1.0 | 0.00 | 0.35 | 0.00 | 90 | 1008.8 |
| 20260507111509 | 47 | 255 | 0.0 | 0.0 | 0.00 | 0.35 | 0.00 | 91 | 1008.7 |
| 20260507111005 | 47 | 321 | 0.0 | 2.0 | 0.00 | 0.35 | 0.00 | 90 | 1008.6 |
| 20260507110505 | 47 | 259 | 1.0 | 2.0 | 0.00 | 0.35 | 0.00 | 88 | 1008.5 |
| 20260507110012 | 48 | 2 | 0.0 | 1.0 | 0.00 | 0.35 | 0.00 | 88 | 1008.6 |
| 20260507105503 | 48 | 169 | 0.0 | 3.0 | 0.00 | 0.35 | 0.00 | 87 | 1008.5 |
| 20260507105005 | 48 | 105 | 0.0 | 3.0 | 0.00 | 0.35 | 0.00 | 88 | 1008.4 |
| 20260507104517 | 49 | 155 | 0.0 | 2.0 | 0.00 | 0.35 | 0.00 | 90 | 1008.5 |
| 20260507104008 | 48 | 188 | 0.0 | 0.0 | 0.00 | 0.35 | 0.00 | 92 | 1008.4 |
| 20260507103508 | 47 | 224 | 0.0 | 0.0 | 0.00 | 0.35 | 0.00 | 92 | 1008.5 |
| 20260507103021 | 47 | 225 | 0.0 | 0.0 | 0.00 | 0.35 | 0.00 | 92 | 1008.4 |
| 20260507102509 | 46 | 163 | 0.0 | 0.0 | 0.00 | 0.35 | 0.00 | 93 | 1008.2 |
| 20260507102008 | 45 | 240 | 0.0 | 0.0 | 0.00 | 0.35 | 0.00 | 93 | 1008.1 |
| 20260507101527 | 45 | 355 | 0.0 | 0.0 | 0.00 | 0.35 | 0.00 | 93 | 1007.9 |
| 20260507101005 | 45 | 355 | 0.0 | 0.0 | 0.00 | 0.35 | 0.00 | 92 | 1007.9 |
| 20260507100504 | 45 | 355 | 0.0 | 0.0 | 0.00 | 0.35 | 0.00 | 92 | 1007.8 |
| 20260507100010 | 45 | 241 | 0.0 | 1.0 | 0.00 | 0.35 | 0.00 | 91 | 1007.8 |
| 20260507095505 | 45 | 241 | 0.0 | 1.0 | 0.00 | 0.35 | 0.00 | 90 | 1008.0 |
| 20260507095006 | 46 | 330 | 0.0 | 1.0 | 0.00 | 0.35 | 0.00 | 89 | 1008.0 |
| 20260507094513 | 46 | 330 | 0.0 | 4.0 | 0.00 | 0.35 | 0.00 | 90 | 1008.0 |
| 20260507094006 | 45 | 315 | 1.0 | 4.0 | 0.00 | 0.35 | 0.00 | 91 | 1007.9 |
| 20260507093507 | 46 | 337 | 0.0 | 0.0 | 0.00 | 0.35 | 0.00 | 91 | 1008.1 |
| 20260507093019 | 46 | 342 | 0.0 | 0.0 | 0.00 | 0.35 | 0.00 | 90 | 1008.1 |
| 20260507092507 | 46 | 302 | 0.0 | 0.0 | 0.00 | 0.35 | 0.00 | 91 | 1008.3 |
| 20260507092007 | 46 | 354 | 0.0 | 0.0 | 0.00 | 0.35 | 0.00 | 91 | 1008.3 |
| 20260507091525 | 47 | 1 | 0.0 | 0.0 | 0.00 | 0.35 | 0.00 | 91 | 1008.0 |
| 20260507091008 | 47 | 8 | 0.0 | 0.0 | 0.00 | 0.35 | 0.00 | 90 | 1008.2 |
| 20260507090510 | 47 | 337 | 0.0 | 0.0 | 0.00 | 0.35 | 0.00 | 91 | 1008.4 |
| 20260507090024 | 47 | 272 | 0.0 | 0.0 | 0.00 | 0.35 | 0.00 | 92 | 1008.3 |
| 20260507085509 | 47 | 309 | 0.0 | 0.0 | 0.00 | 0.35 | 0.00 | 93 | 1008.4 |
| 20260507085005 | 47 | 217 | 0.0 | 0.0 | 0.00 | 0.35 | 0.00 | 94 | 1008.3 |
| 20260507084512 | 47 | 228 | 0.0 | 0.0 | 0.00 | 0.35 | 0.00 | 95 | 1008.4 |
| 20260507084006 | 47 | 228 | 0.0 | 0.0 | 0.00 | 0.35 | 0.00 | 95 | 1008.6 |
| 20260507083505 | 47 | 199 | 0.0 | 0.0 | 0.00 | 0.35 | 0.00 | 95 | 1008.5 |
| 20260507083016 | 47 | 238 | 0.0 | 0.0 | 0.00 | 0.35 | 0.00 | 95 | 1008.7 |
| 20260507082512 | 47 | 231 | 0.0 | 0.0 | 0.00 | 0.35 | 0.00 | 95 | 1008.5 |
| 20260507082009 | 47 | 217 | 0.0 | 0.0 | 0.00 | 0.35 | 0.00 | 95 | 1008.5 |
| 20260507081518 | 47 | 201 | 0.0 | 0.0 | 0.00 | 0.35 | 0.00 | 95 | 1008.3 |
| 20260507081008 | 47 | 201 | 0.0 | 0.0 | 0.00 | 0.35 | 0.00 | 95 | 1008.3 |
| 20260507080508 | 47 | 200 | 0.0 | 0.0 | 0.00 | 0.35 | 0.00 | 95 | 1008.4 |
| 20260507080023 | 47 | 206 | 0.0 | 0.0 | 0.00 | 0.35 | 0.00 | 95 | 1008.3 |
| 20260507075509 | 47 | 206 | 0.0 | 0.0 | 0.00 | 0.35 | 0.00 | 95 | 1008.1 |
| 20260507075011 | 47 | 206 | 0.0 | 0.0 | 0.00 | 0.35 | 0.00 | 95 | 1008.2 |
| 20260507074531 | 47 | 206 | 0.0 | 0.0 | 0.00 | 0.35 | 0.00 | 95 | 1008.1 |
| 20260507074008 | 47 | 206 | 0.0 | 0.0 | 0.00 | 0.35 | 0.00 | 94 | 1008.0 |
| 20260507073504 | 47 | 206 | 0.0 | 0.0 | 0.00 | 0.35 | 0.00 | 94 | 1007.8 |
| 20260507073013 | 47 | 206 | 0.0 | 0.0 | 0.00 | 0.35 | 0.00 | 94 | 1007.9 |
| 20260507072506 | 47 | 206 | 0.0 | 0.0 | 0.00 | 0.35 | 0.00 | 94 | 1007.9 |
| 20260507072004 | 47 | 206 | 0.0 | 0.0 | 0.00 | 0.35 | 0.00 | 94 | 1007.9 |
| 20260507071517 | 47 | 206 | 0.0 | 0.0 | 0.00 | 0.35 | 0.00 | 94 | 1008.1 |
| 20260507071005 | 47 | 207 | 0.0 | 0.0 | 0.00 | 0.35 | 0.00 | 94 | 1008.3 |
| 20260507070508 | 47 | 207 | 0.0 | 0.0 | 0.00 | 0.35 | 0.00 | 94 | 1007.9 |
| 20260507070020 | 47 | 205 | 0.0 | 2.0 | 0.00 | 0.35 | 0.00 | 94 | 1007.8 |
| 20260507065510 | 47 | 231 | 0.0 | 2.0 | 0.00 | 0.35 | 0.00 | 93 | 1007.8 |
| 20260507065009 | 48 | 243 | 0.0 | 0.0 | 0.00 | 0.35 | 0.00 | 94 | 1007.7 |
| 20260507064529 | 48 | 345 | 0.0 | 0.0 | 0.00 | 0.35 | 0.00 | 93 | 1007.4 |
| 20260507064011 | 47 | 339 | 0.0 | 0.0 | 0.00 | 0.35 | 0.00 | 93 | 1007.4 |
| 20260507063512 | 48 | 337 | 0.0 | 0.0 | 0.00 | 0.35 | 0.00 | 93 | 1007.6 |
| 20260507063027 | 48 | 336 | 0.0 | 0.0 | 0.00 | 0.35 | 0.00 | 93 | 1007.7 |
| 20260507062513 | 48 | 337 | 0.0 | 0.0 | 0.00 | 0.35 | 0.00 | 93 | 1007.6 |
| 20260507062012 | 48 | 336 | 0.0 | 0.0 | 0.00 | 0.35 | 0.00 | 92 | 1007.4 |
| 20260507061521 | 48 | 11 | 0.0 | 0.0 | 0.00 | 0.35 | 0.00 | 92 | 1007.6 |
| 20260507061010 | 48 | 22 | 0.0 | 0.0 | 0.00 | 0.35 | 0.00 | 92 | 1007.7 |
| 20260507060504 | 48 | 23 | 0.0 | 0.0 | 0.00 | 0.35 | 0.00 | 91 | 1007.5 |
| 20260507060018 | 48 | 23 | 0.0 | 0.0 | 0.00 | 0.35 | 0.00 | 91 | 1007.8 |
| 20260507055506 | 48 | 23 | 0.0 | 0.0 | 0.00 | 0.35 | 0.00 | 91 | 1007.9 |
| 20260507055008 | 48 | 23 | 0.0 | 0.0 | 0.00 | 0.35 | 0.00 | 91 | 1007.6 |
| 20260507054522 | 48 | 23 | 0.0 | 4.0 | 0.00 | 0.35 | 0.00 | 90 | 1007.9 |
| 20260507054006 | 48 | 357 | 0.0 | 4.0 | 0.00 | 0.35 | 0.00 | 90 | 1008.1 |
| 20260507053511 | 48 | 358 | 1.0 | 4.0 | 0.00 | 0.35 | 0.00 | 90 | 1008.2 |
| 20260507053032 | 48 | 346 | 1.0 | 4.0 | 0.00 | 0.35 | 0.00 | 90 | 1008.3 |
| 20260507052510 | 48 | 337 | 2.0 | 4.0 | 0.00 | 0.35 | 0.00 | 90 | 1008.2 |
| 20260507052003 | 48 | 351 | 2.0 | 4.0 | 0.00 | 0.35 | 0.00 | 90 | 1008.3 |
| 20260507051511 | 48 | 13 | 1.0 | 5.0 | 0.00 | 0.35 | 0.00 | 90 | 1008.4 |
| 20260507051005 | 48 | 1 | 3.0 | 5.0 | 0.00 | 0.35 | 0.00 | 91 | 1008.6 |
| 20260507050501 | 48 | 312 | 0.0 | 2.0 | 0.00 | 0.35 | 0.00 | 91 | 1008.7 |
| 20260507050003 | 48 | 342 | 0.0 | 2.0 | 0.00 | 0.35 | 0.00 | 91 | 1008.6 |
| 20260507045503 | 48 | 352 | 0.0 | 1.0 | 0.00 | 0.35 | 0.00 | 90 | 1008.5 |
| 20260507045003 | 49 | 352 | 0.0 | 2.0 | 0.00 | 0.35 | 0.00 | 90 | 1008.5 |
| 20260507044507 | 49 | 344 | 1.0 | 4.0 | 0.00 | 0.35 | 0.00 | 89 | 1008.7 |
| 20260507044002 | 49 | 351 | 1.0 | 4.0 | 0.00 | 0.35 | 0.00 | 90 | 1008.4 |
| 20260507043504 | 49 | 348 | 0.0 | 4.0 | 0.00 | 0.35 | 0.00 | 90 | 1008.2 |
| 20260507043006 | 49 | 331 | 1.0 | 5.0 | 0.00 | 0.35 | 0.00 | 90 | 1008.3 |
| 20260507042503 | 49 | 331 | 2.0 | 5.0 | 0.00 | 0.35 | 0.00 | 90 | 1008.3 |
| 20260507042003 | 49 | 332 | 1.0 | 4.0 | 0.00 | 0.35 | 0.00 | 89 | 1008.2 |
| 20260507041508 | 49 | 336 | 1.0 | 2.0 | 0.00 | 0.35 | 0.00 | 90 | 1008.1 |
| 20260507041002 | 49 | 59 | 0.0 | 3.0 | 0.00 | 0.35 | 0.00 | 90 | 1008.1 |
| 20260507040504 | 49 | 356 | 1.0 | 3.0 | 0.00 | 0.35 | 0.00 | 90 | 1008.2 |
| 20260507040013 | 49 | 347 | 0.0 | 4.0 | 0.00 | 0.35 | 0.00 | 90 | 1008.1 |
| 20260507035502 | 49 | 351 | 1.0 | 4.0 | 0.00 | 0.35 | 0.35 | 90 | 1008.2 |
| 20260507035005 | 49 | 13 | 1.0 | 3.0 | 0.00 | 0.35 | 0.35 | 91 | 1008.2 |
| 20260507034503 | 49 | 19 | 0.0 | 5.0 | 0.00 | 0.35 | 0.35 | 91 | 1008.3 |
| 20260507034001 | 49 | 326 | 0.0 | 5.0 | 0.00 | 0.35 | 0.35 | 91 | 1008.6 |
| 20260507033503 | 50 | 342 | 2.0 | 5.0 | 0.00 | 0.35 | 0.35 | 91 | 1008.3 |
| 20260507033003 | 50 | 347 | 1.0 | 5.0 | 0.00 | 0.35 | 0.35 | 92 | 1008.5 |
| 20260507032503 | 50 | 2 | 0.0 | 3.0 | 0.00 | 0.35 | 0.35 | 92 | 1008.3 |
| 20260507032002 | 50 | 352 | 0.0 | 4.0 | 0.00 | 0.35 | 0.35 | 91 | 1008.3 |
| 20260507031508 | 50 | 316 | 0.0 | 6.0 | 0.00 | 0.35 | 0.35 | 91 | 1008.2 |
| 20260507031005 | 50 | 325 | 1.0 | 6.0 | 0.00 | 0.35 | 0.35 | 91 | 1008.3 |
| 20260507030503 | 50 | 340 | 3.0 | 5.0 | 0.01 | 0.35 | 0.35 | 90 | 1008.1 |
| 20260507030013 | 50 | 333 | 3.0 | 7.0 | 0.02 | 0.35 | 0.35 | 90 | 1008.1 |
| 20260507025505 | 51 | 342 | 3.0 | 7.0 | 0.05 | 0.35 | 0.35 | 90 | 1008.2 |
| 20260507025007 | 51 | 327 | 3.0 | 6.0 | 0.06 | 0.35 | 0.35 | 90 | 1008.1 |
| 20260507024518 | 51 | 326 | 2.0 | 6.0 | 0.06 | 0.35 | 0.35 | 90 | 1007.9 |
| 20260507024009 | 51 | 336 | 2.0 | 9.0 | 0.06 | 0.35 | 0.35 | 90 | 1007.8 |
| 20260507023502 | 52 | 315 | 2.0 | 9.0 | 0.06 | 0.35 | 0.35 | 90 | 1007.9 |
| 20260507023003 | 52 | 349 | 3.0 | 8.0 | 0.06 | 0.35 | 0.35 | 91 | 1008.0 |
| 20260507022503 | 53 | 6 | 3.0 | 8.0 | 0.06 | 0.35 | 0.35 | 91 | 1008.0 |
| 20260507022004 | 53 | 342 | 4.0 | 8.0 | 0.06 | 0.35 | 0.35 | 92 | 1007.8 |
| 20260507021503 | 54 | 357 | 2.0 | 5.0 | 0.06 | 0.35 | 0.35 | 92 | 1007.8 |
| 20260507021003 | 54 | 331 | 0.0 | 5.0 | 0.06 | 0.35 | 0.35 | 92 | 1007.6 |
| 20260507020503 | 55 | 32 | 1.0 | 5.0 | 0.05 | 0.34 | 0.34 | 92 | 1007.5 |
| 20260507020010 | 55 | 347 | 3.0 | 5.0 | 0.04 | 0.33 | 0.33 | 92 | 1007.5 |
| 20260507015503 | 55 | 345 | 0.0 | 2.0 | 0.01 | 0.30 | 0.30 | 92 | 1007.6 |
| 20260507015003 | 55 | 242 | 0.0 | 1.0 | 0.00 | 0.29 | 0.29 | 93 | 1007.5 |
| 20260507014520 | 55 | 243 | 0.0 | 3.0 | 0.01 | 0.29 | 0.29 | 93 | 1007.1 |
| 20260507014007 | 56 | 243 | 0.0 | 3.0 | 0.01 | 0.29 | 0.29 | 93 | 1007.0 |
| 20260507013506 | 56 | 240 | 2.0 | 3.0 | 0.01 | 0.29 | 0.29 | 93 | 1006.9 |
| 20260507013021 | 56 | 236 | 0.0 | 2.0 | 0.01 | 0.29 | 0.29 | 93 | 1006.8 |
| 20260507012506 | 56 | 243 | 0.0 | 3.0 | 0.01 | 0.29 | 0.29 | 93 | 1006.8 |
| 20260507012004 | 57 | 206 | 1.0 | 3.0 | 0.03 | 0.29 | 0.29 | 92 | 1006.6 |
| 20260507011505 | 57 | 229 | 0.0 | 2.0 | 0.04 | 0.29 | 0.29 | 92 | 1006.5 |
| 20260507011004 | 57 | 187 | 0.0 | 1.0 | 0.05 | 0.29 | 0.29 | 92 | 1006.3 |
| 20260507010503 | 58 | 108 | 0.0 | 2.0 | 0.05 | 0.29 | 0.29 | 92 | 1006.2 |
| 20260507010024 | 58 | 248 | 0.0 | 2.0 | 0.05 | 0.29 | 0.29 | 91 | 1006.2 |
| 20260507005507 | 58 | 226 | 1.0 | 2.0 | 0.05 | 0.29 | 0.29 | 91 | 1006.1 |
| 20260507005003 | 58 | 79 | 0.0 | 2.0 | 0.05 | 0.29 | 0.29 | 91 | 1006.2 |
| 20260507004512 | 58 | 216 | 0.0 | 2.0 | 0.04 | 0.28 | 0.28 | 92 | 1006.3 |
| 20260507004005 | 58 | 131 | 0.0 | 2.0 | 0.04 | 0.28 | 0.28 | 92 | 1006.0 |
| 20260507003507 | 59 | 41 | 0.0 | 2.0 | 0.04 | 0.28 | 0.28 | 93 | 1006.0 |
| 20260507003014 | 59 | 231 | 0.0 | 4.0 | 0.04 | 0.28 | 0.28 | 93 | 1006.2 |
| 20260507002508 | 59 | 266 | 0.0 | 7.0 | 0.04 | 0.28 | 0.28 | 93 | 1006.1 |
| 20260507002009 | 59 | 227 | 0.0 | 7.0 | 0.02 | 0.26 | 0.26 | 93 | 1005.9 |
| 20260507001523 | 59 | 257 | 1.0 | 6.0 | 0.01 | 0.25 | 0.25 | 93 | 1005.7 |
| 20260507001006 | 59 | 252 | 3.0 | 8.0 | 0.00 | 0.24 | 0.24 | 92 | 1005.4 |
| 20260507000508 | 59 | 240 | 2.0 | 9.0 | 0.00 | 0.24 | 0.24 | 92 | 1005.2 |
| 20260507000004 | 59 | 184 | 5.0 | 9.0 | 0.00 | 0.24 | 0.24 | 92 | 1005.1 |
| 20260506235504 | 59 | 149 | 5.0 | 8.0 | 0.00 | 0.24 | 0.24 | 92 | 1005.1 |
| 20260506235004 | 59 | 207 | 4.0 | 9.0 | 0.00 | 0.24 | 0.24 | 92 | 1004.9 |
| 20260506234508 | 59 | 186 | 5.0 | 9.0 | 0.00 | 0.24 | 0.24 | 92 | 1004.9 |